CAPE
1817 2160 2231 1911 1356 568 0 0 0 687 1129 1247 1000 313 17 0 41 5 82 422 701 605 1289 1154 1010 972 902 682 850 738 544 455 487 453 226 225 495 546 297 155 57 69 119
2314 1974 1685 1624 1147 310 492 640 692 1910 2105 1698 986 530 38 73 31 86 194 806 440 970 942 852 705 825 728 894 682 639 549 418 527 301 282 112 232 316 479 405 373 415 203
2314 1803 1589 1528 849 512 955 1140 1662 2276 1881 719 527 271 235 188 129 268 859 1028 793 719 753 710 680 761 687 170 548 501 558 226 348 381 305 362 76 452 529 553 520 656 596
2178 1985 1679 831 929 1170 927 278 958 1923 1086 936 688 424 325 351 1070 803 944 815 729 551 467 503 440 488 333 456 482 511 518 414 231 311 340 444 594 578 494 484 669 748 603
2041 1935 1324 234 598 692 1521 1520 1760 1222 974 1118 928 1063 933 1113 882 888 954 869 482 232 216 364 419 538 615 630 645 631 531 372 308 374 216 323 420 636 600 443 258 351 172
1791 1710 1334 370 475 589 1437 1675 1557 945 978 928 1342 1351 1041 1136 909 908 458 151 60 67 144 336 112 247 582 676 704 773 661 420 374 229 35 215 338 257 623 546 489 347 62
1816 818 640 468 358 333 821 1754 1443 835 873 924 1197 1376 1341 1375 1112 505 160 51 3 4 100 319 135 153 547 661 787 613 632 641 508 429 289 333 456 691 779 681 261 10 75
1524 1372 1128 575 313 275 742 1312 1648 867 840 1174 1538 1730 1312 841 489 248 113 24 1 5 12 158 123 178 398 514 368 215 292 589 563 603 597 604 742 855 812 416 400 122 17
2755 1537 1114 391 1202 1027 1252 1827 1625 1012 802 1309 1741 1398 1354 737 456 300 166 42 5 2 8 4 3 83 129 242 293 171 112 160 212 351 499 576 840 937 930 127 28 122 79
963 1145 1812 2025 2453 2534 2127 1851 1417 1045 1170 1456 1336 1113 916 675 406 197 119 115 57 5 8 2 2 15 49 99 118 63 46 155 162 177 182 317 435 488 641 757 125 34 60
963 1451 1800 2544 2752 2113 1484 1406 1161 1275 357 623 1131 938 696 445 228 89 86 82 5 2 4 4 6 5 7 6 7 13 7 1 4 7 17 23 138 261 384 498 548 428 176
1412 1507 1844 2755 2252 903 293 953 974 591 145 247 928 938 656 359 187 73 80 50 1 3 3 1 3 2 4 8 7 5 7 4 0 1 5 10 10 57 23 161 120 304 293
1627 2024 2088 2415 1424 35 272 994 991 375 48 319 879 931 742 484 313 169 98 43 6 1 1 0 0 0 0 0 2 4 4 7 2 2 5 3 8 3 1 5 3 3 6
1633 2284 2155 1755 121 0 51 1499 961 502 184 204 875 859 846 705 433 278 172 60 11 1 1 2 0 0 0 0 0 0 0 2 6 8 6 5 2 2 5 5 9 9 3
1959 1965 1891 1485 81 2 444 1458 1187 690 439 328 588 994 945 848 667 395 220 90 25 0 0 1 1 0 0 0 0 0 0 0 0 4 1 0 0 0 0 5 9 10 9
879 1614 1987 1861 254 279 425 1300 1398 833 398 424 585 885 1202 1031 794 549 270 155 52 2 1 0 0 0 0 0 0 0 0 0 0 0 0 0 0 0 0 0 0 0 14
1108 1356 1575 1837 880 742 715 1197 1186 1058 503 649 799 1140 1264 1141 972 703 354 155 90 4 3 5 5 1 0 0 0 0 0 0 0 0 0 0 0 0 0 0 0 0 0
704 968 1711 1763 1266 726 1070 653 334 331 874 804 912 1514 1269 1208 885 745 487 253 98 2 0 0 6 2 0 0 0 0 0 0 0 0 0 0 0 0 0 0 0 0 0
1687 1841 2025 1722 1971 1289 909 557 85 67 442 729 799 1072 1326 1141 944 408 492 264 89 12 0 0 8 2 0 0 0 0 0 0 0 0 0 0 0 0 0 0 0 0 0
1203 1424 1798 1630 1134 1047 531 302 152 92 705 573 722 326 609 899 580 561 650 154 62 8 0 0 2 0 0 0 0 0 0 0 0 0 0 0 0 0 0 0 0 0 0
839 1218 1825 1671 1374 1128 783 635 589 729 823 199 141 130 227 332 469 486 372 75 5 5 1 0 0 0 0 0 0 0 0 0 0 0 0 0 0 0 0 0 0 0 0
674 612 623 494 394 505 938 786 134 4 30 56 130 106 40 89 313 250 149 19 0 1 0 0 0 0 0 0 0 0 0 0 0 0 0 0 0 0 0 0 0 0 0
829 793 700 531 172 161 207 479 68 15 8 3 2 1 1 1 34 120 3 1 1 1 0 0 0 0 0 0 0 0 0 0 0 0 0 0 0 0 0 0 0 0 0
1137 1007 744 520 248 49 65 48 5 2 2 3 2 4 0 0 1 1 3 1 2 0 0 0 0 0 0 0 0 0 0 0 0 0 0 0 0 0 0 0 0 0 0
928 786 538 350 53 19 4 3 3 3 5 5 5 4 3 3 0 0 2 3 1 0 0 1 0 0 0 0 0 0 0 0 0 0 0 0 0 0 0 0 0 0 0
903 680 543 407 98 48 7 2 3 2 3 3 5 4 4 3 5 3 1 0 0 0 0 0 0 0 0 0 0 0 0 0 0 0 0 0 0 0 0 0 0 0 0
CIN
-43 -38 -63 -148 -161 -152 0 0 0 -72 -36 -8 -1 -10 -56 -7 -22 -28 -14 -8 -5 -8 0 -2 0 0 0 -1 0 -1 -1 -1 -1 0 -1 -1 -2 -1 -1 -5 -17 -10 -16
-134 -157 -180 -153 -114 -318 -143 -116 -111 -4 -1 0 -1 -2 -102 -64 -97 -73 -53 -23 -36 -1 -1 -1 0 -1 0 -1 -1 -1 0 -1 -1 0 0 -4 -3 -1 -1 -1 -1 -2 -2
-109 -173 -194 -144 -240 -261 -125 -55 -49 -2 -1 -40 -35 -49 -10 -17 -72 -72 -8 0 0 0 0 0 0 -1 -1 -1 -1 -1 0 -1 -1 0 0 0 -33 -1 -1 -1 -1 -1 0
-113 -135 -149 -258 -173 -196 -182 -195 -121 -13 -37 -42 -25 -21 -5 -10 0 -2 0 0 0 0 0 0 -1 0 -1 -1 -1 -1 0 0 0 0 0 -1 0 0 -1 -1 -1 0 -8
-115 -141 -169 -319 -236 -260 -114 -101 -41 -55 -44 -23 -29 -2 -2 -1 -4 -1 0 0 -1 -5 -10 0 -1 0 0 0 0 0 0 0 0 0 -1 0 0 0 -1 0 0 -2 -23
-162 -133 -166 -322 -297 -229 -69 -53 -47 -65 -27 -23 -21 -6 -4 0 -1 0 -5 -20 -33 -24 -22 0 -10 -11 0 0 0 0 0 0 0 0 -10 -1 0 0 0 -1 0 0 -18
-152 -226 -230 -283 -357 -287 -117 -25 -49 -80 -21 -6 -18 -14 0 0 0 -3 -34 -58 -1 -1 -28 0 -5 -9 0 0 0 0 -2 0 0 0 0 0 0 0 0 -1 -3 -37 0
-172 -171 -179 -262 -283 -241 -124 -40 -28 -48 -9 -1 0 0 -4 -4 -3 -7 -39 -46 0 -1 -4 -9 -8 -3 0 0 -4 -18 -16 0 0 0 0 0 0 0 0 -6 0 0 -16
-47 -102 -163 -221 -118 -107 -57 -10 -11 -16 -12 -1 0 0 0 -3 -10 -60 -47 -63 0 0 0 0 0 -50 -31 -9 -14 -30 -46 -9 -1 0 0 -1 0 0 0 -23 -42 -2 0
-133 -139 -70 -47 -10 -2 -2 -1 -15 -13 -3 -1 -5 -12 -5 -7 -16 -28 -54 -45 -41 0 0 -2 0 -150 -115 -78 -80 -111 -85 -18 -13 -8 -5 0 0 0 -1 0 -20 -31 -8
-129 -115 -70 -19 -1 -8 -63 -12 0 -4 -31 -21 -2 -22 -22 -28 -47 -66 -55 -94 -18 0 0 0 0 0 -56 -19 -25 -56 0 0 0 0 -24 -45 -24 -1 0 0 -1 0 -8
-128 -123 -93 -8 -36 -173 -273 -62 -3 -8 -42 -35 -6 -12 -21 -21 -38 -72 -99 -103 0 0 0 0 -1 0 -1 -1 0 -1 0 -1 0 -3 0 -1 0 -34 -11 -5 -14 0 0
-131 -122 -102 -81 -151 -325 -234 -174 -43 -53 -191 -46 -2 -1 -2 -8 -21 -63 -73 -105 -71 0 -1 0 0 -1 0 0 0 0 -1 0 0 -1 0 0 0 0 -1 0 0 0 0
-145 -105 -120 -147 -383 0 -306 -55 -93 -97 -97 -40 -1 -1 -1 -2 -9 -23 -23 -39 -72 0 0 0 0 0 0 0 0 0 0 0 0 0 0 0 0 -1 0 0 0 0 0
-129 -135 -140 -161 -358 -214 -227 -85 -54 -106 -68 -42 -2 -1 -1 -1 -4 -13 -6 -18 -47 0 0 0 -1 0 0 0 0 0 0 0 0 0 -1 0 0 0 0 0 -1 -1 -1
-206 -144 -103 -94 -277 -202 -165 -62 -11 -45 -100 -48 -1 0 -1 0 -6 -9 -25 -16 -36 0 -1 0 0 0 0 0 0 0 0 0 0 0 0 0 0 0 0 0 0 0 -1
-175 -171 -144 -85 -140 -107 -125 -57 -20 -11 -33 -23 -4 -1 -2 0 -1 -3 -17 -11 -26 0 0 -51 -20 -1 0 0 0 0 0 0 0 0 0 0 0 0 0 0 0 0 0
-231 -175 -90 -59 -50 -113 -66 -128 -133 -85 -5 -1 -2 0 0 -2 -6 -7 -14 -13 -30 0 -1 0 -26 0 0 0 0 0 0 0 0 0 0 0 0 0 0 0 0 0 0
-158 -100 -45 -44 -6 -29 -56 -68 -112 -61 -22 -3 -2 -5 -7 -7 -12 -50 -17 -15 -34 -16 0 0 0 0 0 0 0 0 0 0 0 0 0 0 0 0 0 0 0 0 0
-253 -161 -39 -32 -74 -77 -135 -120 -87 -61 -33 -47 -64 -125 -65 -16 -51 -34 -10 -36 -21 0 -2 0 0 0 0 0 0 0 0 0 0 0 0 0 0 0 0 0 0 0 0
-310 -190 -58 -33 -63 -72 -88 -64 -42 -1 -6 -153 -180 -176 -97 -95 -62 -41 -36 -79 -33 0 -1 0 0 0 0 0 0 0 0 0 0 0 0 0 0 0 0 0 0 0 0
-297 -288 -250 -253 -252 -199 -89 -67 -238 -101 -275 -238 -200 -202 -205 -185 -92 -83 -104 -157 0 0 -1 0 0 0 0 0 0 0 0 0 0 0 0 0 0 0 0 0 0 0 0
-199 -191 -214 -239 -312 -301 -255 -138 -276 -304 -344 0 0 0 0 -4 -249 -166 -43 0 0 0 0 0 0 0 0 0 0 0 0 0 0 0 0 0 0 0 0 0 0 0 0
-119 -117 -153 -207 -276 -336 -356 -368 0 0 0 0 0 0 0 0 0 0 0 0 0 0 0 0 0 0 0 0 0 0 0 0 0 0 0 0 0 0 0 0 0 0 0
-120 -136 -161 -198 -311 -362 -336 0 0 0 0 0 0 0 0 0 0 0 0 0 0 0 0 0 0 0 0 0 0 0 0 0 0 0 0 0 0 -1 0 0 0 0 0
-87 -108 -120 -144 -216 -281 -401 0 0 0 0 0 0 0 0 0 0 0 0 0 0 0 0 0 0 0 0 0 0 0 0 0 0 0 0 -2 0 0 0 0 0 0 0
Wind_Speed
7 8 11 11 11 13 19 30 17 17 11 9 12 15 12 10 12 15 16 17 15 16 9 7 6 5 5 7 10 3 3 2 7 11 2 8 6 7 8 6 5 5 5
6 8 9 9 11 15 16 12 15 14 13 14 19 20 11 10 9 11 13 14 14 15 17 16 8 6 7 5 10 7 3 1 6 8 15 7 1 2 3 6 8 12 15
5 5 7 9 11 14 18 20 18 15 15 17 20 20 13 15 9 11 12 13 15 17 19 16 9 9 24 16 5 5 4 3 8 5 10 16 12 8 10 6 11 15 15
8 6 7 10 14 13 15 17 17 16 16 17 18 18 14 13 12 12 13 15 17 18 19 20 13 8 12 7 7 6 5 4 5 9 4 6 18 13 10 7 10 14 16
11 9 9 10 15 13 15 16 16 16 16 17 16 17 17 18 13 14 14 16 18 18 19 19 19 9 9 10 10 9 10 7 6 6 10 7 6 15 14 10 7 11 15
14 12 13 14 15 13 15 16 16 16 15 14 14 16 17 17 16 15 16 16 17 17 17 19 19 19 19 15 18 19 15 14 10 9 7 6 6 7 4 10 9 10 14
14 14 16 17 13 12 13 14 14 14 13 12 13 13 15 16 15 14 16 15 16 16 17 17 17 16 16 17 19 19 19 18 13 12 11 9 10 8 9 10 11 13 12
14 15 17 19 13 12 11 12 12 12 11 11 12 12 13 15 15 15 17 16 16 16 16 15 16 15 15 17 19 19 18 12 12 12 14 13 13 10 10 10 8 8 12
15 16 18 17 16 13 12 11 12 11 10 9 10 10 12 13 14 15 17 18 17 17 16 15 15 16 17 18 18 19 16 12 14 12 11 14 15 14 12 12 10 10 9
16 18 18 17 17 17 16 14 11 10 9 9 9 8 10 12 13 14 16 18 18 18 17 16 16 16 17 17 16 15 11 8 9 9 9 11 11 13 15 14 14 11 10
17 17 17 16 17 18 21 20 12 9 10 9 8 6 8 12 14 15 15 18 19 19 19 18 17 17 18 17 16 14 13 13 13 12 19 20 19 20 19 18 15 13 12
16 14 13 13 14 13 17 14 6 10 9 12 5 9 8 11 15 15 17 17 18 19 18 18 18 18 18 17 16 15 15 16 17 19 20 21 21 21 20 20 18 17 15
15 14 12 11 10 11 12 14 10 11 15 24 24 12 11 13 15 15 16 17 18 18 18 18 18 17 17 17 16 16 16 17 19 19 20 21 21 22 21 20 19 18 17
12 13 11 9 9 10 12 14 10 11 19 20 16 20 17 13 13 14 15 16 18 17 17 17 17 17 16 17 16 17 17 18 19 20 21 22 22 22 21 21 20 19 18
13 12 10 8 8 10 11 12 15 11 14 14 17 17 14 11 11 12 13 14 16 17 16 16 16 16 16 16 16 17 17 18 19 20 21 22 23 23 22 21 21 20 19
14 13 10 7 6 9 10 10 8 8 8 11 12 8 8 10 9 10 11 13 14 15 16 15 15 15 15 16 16 17 17 18 18 19 20 20 21 23 23 23 23 22 20
15 12 10 7 7 9 10 9 5 4 4 12 2 4 6 6 7 8 9 9 12 14 15 15 15 15 14 15 16 16 17 17 18 18 19 20 21 22 22 22 23 23 22
16 15 11 9 9 9 9 10 6 3 11 8 4 7 5 4 6 7 8 8 10 12 13 14 14 15 15 15 15 16 16 17 18 18 19 20 21 21 21 21 22 22 22
17 16 13 10 10 9 9 11 9 8 30 5 6 8 5 4 5 5 8 9 9 11 11 12 12 13 14 13 13 14 15 16 17 17 18 18 20 21 21 20 20 20 20
16 13 10 10 11 11 12 12 12 15 20 3 3 6 10 8 7 7 5 6 7 9 11 11 11 13 13 13 14 15 14 14 15 16 17 18 19 20 20 19 19 20 19
16 13 11 8 10 11 10 10 10 9 12 11 6 9 13 17 13 6 5 6 6 8 10 11 11 13 14 13 13 15 14 14 15 16 16 18 18 19 20 21 20 19 19
16 14 11 11 11 11 8 7 8 9 5 6 5 7 7 10 10 7 5 4 4 6 9 9 10 12 14 14 11 13 14 14 14 14 15 16 17 18 19 21 21 19 17
15 14 13 13 14 13 13 9 7 8 8 6 11 11 13 14 15 5 4 3 3 5 8 8 10 12 13 14 12 12 13 13 13 14 14 13 15 16 18 20 20 18 19
15 15 16 16 17 16 16 15 12 10 8 6 7 10 11 12 12 10 6 2 2 5 7 8 11 12 12 12 11 11 12 12 12 12 11 12 15 18 18 17 19 20 20
16 18 18 18 16 16 17 17 15 13 12 12 14 14 13 13 11 10 9 5 6 5 6 8 10 11 12 11 12 11 11 11 11 11 11 12 14 15 17 18 19 19 19
16 17 17 16 16 17 17 18 17 15 13 13 12 12 12 11 9 7 7 11 10 9 9 9 10 12 12 11 10 11 11 11 9 10 11 13 14 16 17 17 17 18 19
Wind_Direction
114 88 66 67 74 48 17 26 184 185 154 103 70 62 36 344 305 292 271 263 284 290 2 67 95 87 35 5 352 139 154 18 348 334 253 208 296 303 314 319 299 288 299
101 79 71 79 58 35 19 11 129 128 107 102 72 65 8 351 4 313 288 280 287 295 295 313 44 60 28 42 183 177 161 104 1 349 333 337 322 276 275 310 310 308 306
84 80 78 72 55 45 75 108 109 101 95 82 72 57 12 26 272 290 302 291 294 304 300 339 34 25 276 210 15 138 121 132 359 356 339 326 322 336 325 309 308 310 307
57 79 72 55 40 58 80 89 88 97 97 90 73 83 352 324 298 293 287 291 298 304 309 319 10 154 186 145 131 90 72 50 17 353 1 334 313 325 331 343 322 316 310
62 75 64 46 31 64 75 82 93 90 89 85 45 83 98 99 341 179 177 298 316 313 313 324 327 168 72 54 41 55 41 51 48 43 354 4 345 311 315 337 355 344 325
57 62 43 22 28 57 71 78 89 90 92 81 48 42 69 65 128 145 22 310 330 331 317 330 334 308 286 6 345 350 28 38 57 56 74 93 55 137 352 326 341 337 330
54 47 28 19 53 53 61 64 76 78 82 70 56 14 38 14 332 300 325 311 326 327 319 322 322 317 289 308 316 360 13 15 75 106 125 127 142 25 347 330 327 319 333
53 53 30 19 63 61 55 45 60 73 75 56 42 8 358 355 7 321 11 350 348 338 329 319 327 318 308 326 349 358 311 231 210 159 109 135 140 108 23 8 3 348 330
39 44 38 47 56 59 40 38 57 68 78 59 17 358 347 351 344 348 18 15 356 6 347 338 332 331 339 348 1 357 318 257 275 245 186 105 70 79 59 37 8 334 354
32 30 39 51 50 48 43 24 42 59 69 67 341 353 305 315 343 345 5 11 6 359 359 351 349 348 350 346 330 330 284 219 213 220 239 184 198 148 61 100 99 79 43
33 33 39 53 57 52 39 351 15 56 62 64 295 359 337 36 42 29 10 22 23 16 19 12 5 5 4 358 345 333 327 325 322 321 3 13 4 17 29 40 48 61 45
29 37 50 61 59 62 21 38 67 69 71 106 39 66 32 32 61 49 40 21 19 22 21 24 21 20 16 3 356 345 344 351 355 359 10 10 14 14 12 22 13 15 24
24 40 58 59 69 52 53 73 89 83 107 134 144 92 77 75 80 50 33 37 25 21 18 19 21 20 17 8 353 350 353 359 3 4 8 2 9 13 13 13 13 10 8
32 36 47 69 61 47 55 64 76 86 123 132 117 139 125 85 73 59 57 39 36 22 19 17 16 17 17 9 359 358 3 6 8 10 10 12 12 15 18 15 17 19 20
27 31 46 71 56 48 61 75 105 98 120 129 140 138 120 81 67 65 58 39 36 28 19 19 16 16 9 360 1 1 3 8 12 14 19 19 21 16 8 19 21 24 24
13 25 41 64 75 93 77 66 75 100 119 126 129 96 95 96 74 52 52 76 38 28 23 17 19 15 11 7 6 9 13 13 14 15 16 17 19 17 18 19 16 8 14
7 20 29 51 85 89 50 56 63 95 142 144 58 49 77 70 64 47 35 39 37 23 21 19 27 26 25 19 16 11 21 21 18 15 13 13 12 15 19 22 21 16 14
1 6 21 45 99 84 65 39 26 339 272 277 307 320 340 39 70 48 50 39 17 12 19 34 44 38 33 34 31 27 26 24 20 18 16 15 13 7 10 16 18 17 15
359 1 15 62 88 76 62 40 27 292 197 294 308 310 317 67 352 19 87 80 47 346 21 38 38 34 30 32 28 22 26 22 18 16 11 15 13 8 4 16 17 18 19
355 6 21 58 71 57 51 68 72 122 155 110 9 319 295 308 322 336 51 36 72 35 10 13 10 1 10 11 5 356 10 11 9 8 9 7 7 5 4 9 10 6 6
358 1 8 20 23 36 51 59 82 113 280 289 350 51 286 273 300 349 30 14 31 18 5 2 2 1 356 359 356 354 3 2 358 360 4 8 11 10 7 4 3 3 2
5 7 5 3 3 360 23 43 52 73 41 329 5 43 14 320 319 329 342 348 5 25 15 16 15 8 359 358 8 1 359 360 3 0 1 5 8 9 6 6 6 8 8
3 359 355 0 0 357 347 3 30 24 29 59 322 320 322 326 313 342 338 346 7 6 357 4 0 1 3 358 6 5 4 4 3 3 6 13 13 15 14 10 9 9 6
355 344 343 345 339 340 325 334 348 358 16 20 360 342 337 333 326 330 328 15 4 350 349 353 351 355 2 4 7 7 5 8 9 10 14 9 3 1 4 8 7 5 4
349 338 332 333 348 351 324 314 325 336 344 342 335 332 328 324 327 330 329 336 339 347 343 344 349 349 350 357 1 3 5 10 12 17 17 9 0 0 1 2 2 5 9
343 343 349 348 343 336 328 316 324 334 339 337 338 334 331 328 331 342 343 336 334 342 346 347 348 347 355 5 3 1 3 10 19 6 360 357 358 357 359 2 6 9 10